• In Uzbekistan
  • List of Countries
  • For 7 days
  • Water Temperature
  • Satellite Maps
  • Weather Map
  • Weather Widgets
  • user-avatar
    Login

    Hourly Weather Sieradza

    Today, 23 October, Tuesday

    Time Temperature Precipitation Wind Pressure Humidity
    00:00 +7°C° 0.2 mm 4 mps 750 mmHg 78%
    01:00 +8°C° 0 mm 4 mps 750 mmHg 80%
    02:00 +7°C° 0 mm 4 mps 749 mmHg 82%
    03:00 +6°C° 0 mm 4 mps 749 mmHg 84%
    04:00 +6°C° 0 mm 4 mps 749 mmHg 86%
    05:00 +5°C° 0 mm 4 mps 749 mmHg 87%
    06:00 +5°C° 0 mm 4 mps 748 mmHg 89%
    07:00 +4°C° 0 mm 4 mps 748 mmHg 90%
    08:00 +6°C° 0 mm 4 mps 747 mmHg 80%
    09:00 +7°C° 0 mm 5 mps 746 mmHg 69%
    10:00 +8°C° 0 mm 6 mps 745 mmHg 59%
    11:00 +9°C° 0 mm 6 mps 744 mmHg 57%
    12:00 +9°C° 0 mm 7 mps 743 mmHg 56%
    13:00 +10°C° 0 mm 7 mps 742 mmHg 54%
    14:00 +9°C° 0.3 mm 7 mps 741 mmHg 58%
    15:00 +9°C° 0.3 mm 8 mps 740 mmHg 62%
    16:00 +7°C° 0.3 mm 8 mps 738 mmHg 66%
    17:00 +7°C° 0.4 mm 9 mps 737 mmHg 70%
    18:00 +7°C° 0.4 mm 9 mps 737 mmHg 73%
    19:00 +7°C° 0.4 mm 10 mps 736 mmHg 77%
    20:00 +7°C° 0.6 mm 10 mps 735 mmHg 78%
    21:00 +8°C° 0.6 mm 10 mps 734 mmHg 80%
    22:00 +8°C° 0.6 mm 10 mps 733 mmHg 81%
    23:00 +9°C° 2 mm 8 mps 733 mmHg 83%

    Tomorrow, 24 October, Wednesday

    Time Temperature Precipitation Wind Pressure Humidity
    00:00 +9°C° 2 mm 7 mps 732 mmHg 84%
    01:00 +8°C° 2 mm 6 mps 732 mmHg 85%
    02:00 +8°C° 1 mm 7 mps 731 mmHg 83%
    03:00 +8°C° 1 mm 7 mps 731 mmHg 80%
    04:00 +6°C° 1 mm 8 mps 731 mmHg 78%
    05:00 +6°C° 0.5 mm 8 mps 731 mmHg 75%
    06:00 +5°C° 0.5 mm 9 mps 731 mmHg 72%
    07:00 +5°C° 0.5 mm 10 mps 731 mmHg 69%
    08:00 +5°C° 0.2 mm 10 mps 732 mmHg 63%
    09:00 +4°C° 0.2 mm 11 mps 733 mmHg 58%
    10:00 +4°C° 0.2 mm 11 mps 734 mmHg 52%
    11:00 +4°C° 0.1 mm 11 mps 734 mmHg 50%
    12:00 +6°C° 0.1 mm 11 mps 735 mmHg 47%
    13:00 +6°C° 0.1 mm 11 mps 735 mmHg 45%
    14:00 +5°C° 0 mm 10 mps 736 mmHg 46%
    15:00 +5°C° 0 mm 9 mps 736 mmHg 47%
    16:00 +5°C° 0 mm 8 mps 737 mmHg 49%
    17:00 +4°C° 0 mm 8 mps 737 mmHg 51%
    18:00 +4°C° 0 mm 7 mps 738 mmHg 53%
    19:00 +3°C° 0 mm 7 mps 739 mmHg 55%
    20:00 +3°C° 0 mm 7 mps 739 mmHg 57%
    21:00 +3°C° 0 mm 7 mps 740 mmHg 58%
    22:00 +3°C° 0 mm 7 mps 740 mmHg 60%
    23:00 +2°C° 0 mm 7 mps 741 mmHg 62%

    Day after tomorrow, 25 October, Thursday

    Time Temperature Precipitation Wind Pressure Humidity
    00:00 +2°C° 0 mm 6 mps 741 mmHg 63%
    01:00 +2°C° 0 mm 6 mps 741 mmHg 65%
    02:00 +2°C° 0 mm 6 mps 741 mmHg 69%
    03:00 +1°C° 0 mm 6 mps 741 mmHg 73%
    04:00 +1°C° 0 mm 6 mps 741 mmHg 77%
    05:00 +1°C° 0 mm 5 mps 741 mmHg 76%
    06:00 +2°C° 0 mm 5 mps 741 mmHg 76%
    07:00 +2°C° 0 mm 5 mps 741 mmHg 75%
    08:00 +2°C° 0.6 mm 5 mps 740 mmHg 78%
    09:00 +3°C° 0.6 mm 5 mps 739 mmHg 80%
    10:00 +5°C° 0.6 mm 5 mps 739 mmHg 82%
    11:00 +5°C° 1 mm 6 mps 738 mmHg 84%
    12:00 +7°C° 1 mm 6 mps 737 mmHg 85%
    13:00 +9°C° 1 mm 7 mps 737 mmHg 87%
    14:00 +9°C° 0.7 mm 7 mps 737 mmHg 87%
    15:00 +9°C° 0.7 mm 8 mps 736 mmHg 86%
    16:00 +10°C° 0.7 mm 8 mps 736 mmHg 85%
    17:00 +9°C° 0.6 mm 8 mps 737 mmHg 85%
    18:00 +9°C° 0.6 mm 8 mps 737 mmHg 85%
    19:00 +9°C° 0.6 mm 8 mps 737 mmHg 84%
    20:00 +9°C° 0.5 mm 7 mps 738 mmHg 84%
    21:00 +8°C° 0.5 mm 6 mps 738 mmHg 83%
    22:00 +7°C° 0.5 mm 5 mps 738 mmHg 82%
    23:00 +7°C° 0 mm 5 mps 739 mmHg 82%

    26 October, Friday

    Time Temperature Precipitation Wind Pressure Humidity
    00:00 +6°C° 0 mm 5 mps 739 mmHg 83%
    01:00 +6°C° 0 mm 5 mps 739 mmHg 83%
    02:00 +6°C° 0 mm 5 mps 739 mmHg 84%
    03:00 +6°C° 0 mm 4 mps 740 mmHg 85%
    04:00 +5°C° 0 mm 4 mps 740 mmHg 86%
    05:00 +5°C° 0 mm 4 mps 740 mmHg 87%
    06:00 +5°C° 0 mm 4 mps 740 mmHg 88%
    07:00 +5°C° 0 mm 4 mps 741 mmHg 89%
    08:00 +6°C° 0 mm 4 mps 741 mmHg 82%
    09:00 +7°C° 0 mm 4 mps 741 mmHg 76%
    10:00 +10°C° 0 mm 4 mps 741 mmHg 69%
    11:00 +10°C° 0 mm 4 mps 741 mmHg 70%
    12:00 +10°C° 0 mm 4 mps 740 mmHg 70%
    13:00 +11°C° 0 mm 3 mps 740 mmHg 70%
    14:00 +10°C° 0 mm 3 mps 740 mmHg 73%
    15:00 +10°C° 0 mm 2 mps 740 mmHg 76%
    16:00 +10°C° 0 mm 2 mps 740 mmHg 78%
    17:00 +9°C° 0 mm 2 mps 740 mmHg 81%
    18:00 +8°C° 0 mm 2 mps 739 mmHg 83%
    19:00 +8°C° 0 mm 2 mps 739 mmHg 85%
    20:00 +8°C° 0 mm 3 mps 739 mmHg 86%
    21:00 +8°C° 0 mm 3 mps 739 mmHg 86%
    22:00 +7°C° 0 mm 3 mps 739 mmHg 86%
    23:00 +7°C° 0 mm 3 mps 738 mmHg 86%

    27 October, Saturday

    Time Temperature Precipitation Wind Pressure Humidity
    00:00 +7°C° 0 mm 3 mps 738 mmHg 87%
    01:00 +7°C° 0 mm 3 mps 738 mmHg 87%
    02:00 +7°C° 0 mm 3 mps 737 mmHg 88%
    03:00 +7°C° 0 mm 3 mps 737 mmHg 89%
    04:00 +7°C° 0 mm 3 mps 737 mmHg 90%
    05:00 +8°C° 0 mm 3 mps 737 mmHg 90%
    06:00 +8°C° 0 mm 3 mps 737 mmHg 90%
    07:00 +8°C° 0 mm 3 mps 737 mmHg 90%
    08:00 +9°C° 0 mm 3 mps 737 mmHg 83%
    09:00 +11°C° 0 mm 3 mps 737 mmHg 76%
    10:00 +12°C° 0 mm 4 mps 737 mmHg 69%
    11:00 +12°C° 0 mm 4 mps 737 mmHg 67%
    12:00 +13°C° 0 mm 4 mps 737 mmHg 64%
    13:00 +13°C° 0 mm 4 mps 737 mmHg 62%
    14:00 +12°C° 0 mm 3 mps 737 mmHg 66%
    15:00 +11°C° 0 mm 3 mps 737 mmHg 70%
    16:00 +10°C° 0 mm 2 mps 738 mmHg 74%
    17:00 +10°C° 0.4 mm 2 mps 738 mmHg 77%
    18:00 +10°C° 0.4 mm 1 mps 738 mmHg 80%
    19:00 +9°C° 0.4 mm 1 mps 738 mmHg 84%
    20:00 +9°C° 0.5 mm 1 mps 738 mmHg 84%
    21:00 +9°C° 0.5 mm 1 mps 739 mmHg 85%
    22:00 +9°C° 0.5 mm 1 mps 739 mmHg 86%
    23:00 +8°C° 0.4 mm 1 mps 739 mmHg 86%

    28 October, Sunday

    Time Temperature Precipitation Wind Pressure Humidity
    00:00 +7°C° 0.4 mm 2 mps 739 mmHg 86%
    01:00 +7°C° 0.4 mm 2 mps 738 mmHg 86%
    02:00 +7°C° 0.8 mm 3 mps 738 mmHg 86%
    03:00 +7°C° 0.8 mm 3 mps 738 mmHg 87%
    04:00 +5°C° 0.8 mm 4 mps 738 mmHg 87%
    05:00 +5°C° 1.2 mm 4 mps 737 mmHg 88%
    06:00 +5°C° 1.2 mm 4 mps 737 mmHg 88%
    07:00 +5°C° 1.2 mm 5 mps 737 mmHg 89%
    08:00 +5°C° 0.6 mm 5 mps 737 mmHg 88%
    09:00 +5°C° 0.6 mm 5 mps 737 mmHg 88%
    10:00 +5°C° 0.6 mm 5 mps 737 mmHg 88%
    11:00 +5°C° 0.6 mm 5 mps 737 mmHg 89%
    12:00 +5°C° 0.6 mm 5 mps 736 mmHg 89%
    13:00 +6°C° 0.6 mm 4 mps 736 mmHg 90%
    14:00 +6°C° 0.4 mm 4 mps 736 mmHg 91%
    15:00 +6°C° 0.4 mm 4 mps 735 mmHg 92%
    16:00 +6°C° 0.4 mm 4 mps 735 mmHg 93%
    17:00 +6°C° 0.3 mm 4 mps 735 mmHg 94%
    18:00 +7°C° 0.3 mm 3 mps 735 mmHg 94%
    19:00 +8°C° 0.3 mm 3 mps 734 mmHg 95%
    20:00 +8°C° 0.1 mm 3 mps 734 mmHg 94%
    21:00 +9°C° 0.1 mm 3 mps 734 mmHg 94%
    22:00 +9°C° 0.1 mm 3 mps 733 mmHg 94%
    23:00 +10°C° 0.1 mm 3 mps 733 mmHg 91%

    29 October, Monday

    Time Temperature Precipitation Wind Pressure Humidity
    00:00 +11°C° 0.1 mm 3 mps 732 mmHg 89%
    01:00 +11°C° 0.1 mm 3 mps 732 mmHg 87%
    02:00 +12°C° 0 mm 4 mps 731 mmHg 84%
    03:00 +12°C° 0 mm 4 mps 731 mmHg 81%
    04:00 +12°C° 0 mm 5 mps 730 mmHg 78%
    05:00 +12°C° 0 mm 5 mps 730 mmHg 77%
    06:00 +12°C° 0 mm 5 mps 730 mmHg 76%
    07:00 +12°C° 0 mm 5 mps 730 mmHg 75%
    08:00 +14°C° 0 mm 6 mps 730 mmHg 71%
    09:00 +15°C° 0 mm 6 mps 730 mmHg 68%
    10:00 +16°C° 0 mm 6 mps 729 mmHg 64%
    11:00 +16°C° 0.3 mm 6 mps 729 mmHg 67%
    12:00 +16°C° 0.3 mm 5 mps 729 mmHg 70%
    13:00 +15°C° 0.3 mm 4 mps 729 mmHg 73%
    14:00 +15°C° 0.2 mm 4 mps 729 mmHg 75%
    15:00 +14°C° 0.2 mm 5 mps 729 mmHg 78%
    16:00 +14°C° 0.2 mm 5 mps 729 mmHg 81%
    17:00 +13°C° 0 mm 5 mps 729 mmHg 82%
    18:00 +13°C° 0 mm 4 mps 729 mmHg 84%
    19:00 +13°C° 0 mm 4 mps 728 mmHg 86%
    20:00 +13°C° 0 mm 4 mps 728 mmHg 86%
    21:00 +13°C° 0 mm 4 mps 729 mmHg 86%
    22:00 +13°C° 0 mm 4 mps 729 mmHg 86%
    23:00 +12°C° 0 mm 4 mps 729 mmHg 87%
    Show more